Regional Weather Roundup
Issued by NWS

Home | Current Version | Previous Version | Graphics & Text | Print | Product List | Glossary On
Versions: 1 2 3 4 5 6 7 8 9 10 11 12 13 14 15 16 17 18 19 20 21 22 23 24 25 26 27 28 29 30 31 32 33 34 35 36 37 38 39 40 41 42 43 44 45 46 47 48 49 50
000
ASUS43 KMKX 011311
RWRWI

WISCONSIN REGIONAL WEATHER ROUNDUP
NATIONAL WEATHER SERVICE MILWAUKEE/SULLIVAN WI
800 AM CDT WED OCT 01 2014

NOTE: "FAIR" INDICATES FEW OR NO CLOUDS BELOW 12,000 FEET WITH NO
SIGNIFICANT WEATHER AND/OR OBSTRUCTIONS TO VISIBILITY.

WIZ001-002-006>008-014>016-023>028-011400-
NORTHWEST WISCONSIN

CITY           SKY/WX    TMP DP  RH WIND       PRES   REMARKS
SUPERIOR ARPT  DRIZZLE   48  46  93 E6        29.88S
ASHLAND        MOCLDY    48  45  89 VRB5      29.92S
HAYWARD        CLOUDY    47  43  86 SE12G20   29.91R
SIREN          CLOUDY    48  46  93 S6        29.88S
CUMBERLAND     CLOUDY    45  43  93 SE10      29.89F
RICE LAKE      CLOUDY    48  43  84 SE12G18   29.92S
CHETEK         LGT RAIN  47  44  90 E14G21    29.92S
LADYSMITH      CLOUDY    47  44  88 SE7       29.96R FOG
EAU CLAIRE     RAIN      47  45  93 SE7       29.92F FOG
MENOMONIE      LGT RAIN  47  46  95 E7        29.91F
NEW RICHMOND   DRIZZLE   47  46  95 SE8       29.88S
OSCEOLA        CLOUDY    49  48  99 SE8       29.90S
$$

WIZ003>005-009-010-017-018-011400-
NORTH CENTRAL WISCONSIN

CITY           SKY/WX    TMP DP  RH WIND       PRES   REMARKS
MANITOWISH WTR CLOUDY    44  44 100 S12       29.96R
ARBOR VITAE    CLOUDY    44  43  93 S7        29.97R
WOODRUFF       CLOUDY    44  43  93 S7        29.97R
RHINELANDER    CLOUDY    44  42  93 S8        29.99S
EAGLE RIVER    CLOUDY    45  44  98 S6        29.97S
LAND O LAKES   CLOUDY    46  44  95 S10       29.97F
PHILLIPS       CLOUDY    45  43  93 SE9       29.95F
TOMAHAWK       CLOUDY    44  43  95 SE7       29.98S
MEDFORD        CLOUDY    45  44  97 SE12      29.96F FOG
MERRILL        CLOUDY    46  46  99 S6        29.99R FOG
$$

WIZ029-030-035-036-043>047-011400-
CENTRAL WISCONSIN

CITY           SKY/WX    TMP DP  RH WIND       PRES   REMARKS
WAUSAU         CLOUDY    47  45  93 SE8       29.98S
MOSINEE        CLOUDY    46  46 100 SE5       30.00R
MARSHFIELD     CLOUDY    49  45  86 SE12      29.96F
STEVENS POINT  CLOUDY    46  46  97 SE5       30.00S
WAUPACA        CLOUDY    51  49  95 E7        30.01S
WAUTOMA        NOT AVBL
WISC RAPIDS    CLOUDY    49  47  93 E6        29.99S
CAMP DOUGLAS   CLOUDY    50  50 100 E6        29.96F
$$

WIZ011>013-019>022-031-037>040-048>050-011400-
NORTHEAST WISCONSIN

CITY           SKY/WX    TMP DP  RH WIND       PRES   REMARKS
ANTIGO         CLOUDY    45  45  99 S9        30.01R
SHAWANO        CLOUDY    50  48  93 CALM      30.03S FOG
OCONTO         CLOUDY    51  51 100 CALM      30.03R
STURGEON BAY   NOT AVBL
GREEN BAY      CLOUDY    51  50  96 E3        30.02S
MANITOWOC      NOT AVBL
APPLETON       CLOUDY    50  48  93 CALM      30.02S FOG
CLINTONVILLE   CLOUDY    46  46 100 CALM      30.02S FOG
OSHKOSH        CLOUDY    52  50  93 CALM      30.00S
$$

WIZ032>034-041-042-053>061-011400-
SOUTHWEST WISCONSIN

CITY           SKY/WX    TMP DP  RH WIND       PRES   REMARKS
LA CROSSE      CLOUDY    52  46  80 SE5       29.93S
SPARTA         CLOUDY    50  45  81 SE6       29.95S
VIROQUA        CLOUDY    49  48  99 SE9       29.93F
BOSCOBEL       CLOUDY    53  47  79 SE3       29.95F
PRAIRIE DU CHI CLOUDY    52  46  81 E9        29.92S
PLATTEVILLE    PTSUNNY   50  47  89 SE12      29.95R
$$

WIZ056-057-062-063-064-067-068-011400-
SOUTH CENTRAL WISCONSIN

CITY           SKY/WX    TMP DP  RH WIND       PRES   REMARKS
REEDSBURG      CLOUDY    50  47  88 SE8       29.97S
BARABOO/DELLS  CLOUDY    50  46  85 SE9       29.97F
LONE ROCK      PTSUNNY   56  47  71 E8        29.96F
MINERAL POINT  PTSUNNY   52  46  82 SE13      29.96R
MADISON        CLOUDY    52  47  83 S9        29.99R
MIDDLETON      CLOUDY    53  47  82 SE9       29.99S
WATERTOWN      CLOUDY    52  49  87 SE7       30.00R
MONROE         CLOUDY    50  46  87 E9        29.97F
JANESVILLE     SUNNY     52  48  87 E7        29.99R
$$

WIZ051-052-058>065-066-070>072-011400-
SOUTHEAST WISCONSIN

CITY           SKY/WX    TMP DP  RH WIND       PRES   REMARKS
MILWAUKEE      PTSUNNY   56  48  74 S7        30.01S
WAUKESHA       CLOUDY    52  48  87 SE7       30.02R
MILWAUKEE/TIMM CLOUDY    55  48  76 S3        30.02S
RACINE         CLOUDY    57  48  72 S7        30.03R
BURLINGTON     CLOUDY    53  47  80 SE6       30.00S
KENOSHA        PTSUNNY   56  48  74 SE8       30.01S
FOND DU LAC    CLOUDY    52  49  89 CALM      30.00S
SHEBOYGAN      NOT AVBL
WEST BEND      CLOUDY    52  48  87 CALM      30.01S
JUNEAU         CLOUDY    52  48  88 SE5       30.01S
$$

LSZ147-162-011400-
LAKE SUPERIOR

STATION/POSITION TIME  TEMP    WIND        PRES    WAVE
                       AIR SEA DIR/SP/G            HT/PER
                 (UTC) (F)     (DEG/KT/KT) (MB)    (FT/S)
W MID LAKE BUOY  1250   49 50  170/ 10/ 14 1014.0R   2/ 4
DEVILS ISLAND    1300   50     150/  7/ 10 1013.3F
SAXON HARBOR     1200   43        CALM     1013.2S
$$

LMZ867-665-643>646-011400-
LAKE MICHIGAN

STATION/POSITION TIME  TEMP    WIND        PRES    WAVE
                       AIR SEA DIR/SP/G            HT/PER
                 (UTC) (F)     (DEG/KT/KT) (MB)    (FT/S)
CHAMBERS ISLAND  1200   53     130/  2/  6 1017.3R
S GREEN BAY BUOY 1200   53                 1017.5R
N MID LAKE BUOY  1250   54 58  180/ 10/ 12 1017.8R   1/ 3
NORTHPORT PIER   1200   53     160/  4/  7 1017.3R
SISTER BAY       1157             CALM       N/A
KEWAUNEE LAKESHO 1200   53     140/  7/ 10 1015.9R
SHEBOYGAN LAKESH 1300   56 54  140/ 12/ 15 1016.9R
PORT WASHINGTON  1200   58     160/  8/ 11 1016.6S
ATWATER BUOY     1300   58     180/  8/ 10 1017.2R
MILWAUKEE LAKESH 1200   57     200/  8/  9   N/A
S MID LAKE BUOY  1250   56 62  150/ 10/ 12 1017.0R   2/ 4
KENOSHA   LAKESH 1300   58     170/ 14/ 16 1016.3R
$$

TC  - TEMPERATURE IN CELSIUS
VSB - VISIBILITY IN STATUTE MILES
WCI - WIND CHILL INDEX
HX  - HEAT INDEX




USA.gov is the U.S. government's official web portal to all federal, state and local government web resources and services.